Temp
-5 -5 -5 -6 -6 -6 -7 -7 -7 -7 -7 -7 -6 -6 -7 -7 -7 -7 -7 -7 -7 -8 -8 -8 -8 -8 -9 -9 -9 -9 -9 -9 -9 -9 -9 -9 -9 -9 -9 -9 -9 -9 -9
-5 -5 -5 -6 -6 -7 -7 -7 -7 -7 -7 -7 -7 -7 -7 -7 -7 -8 -8 -8 -8 -8 -8 -8 -8 -8 -8 -9 -9 -9 -9 -9 -9 -9 -9 -9 -10 -9 -9 -9 -9 -9 -9
-5 -6 -6 -6 -7 -7 -7 -7 -7 -8 -7 -7 -7 -7 -8 -7 -8 -8 -8 -8 -8 -8 -8 -8 -8 -8 -8 -9 -9 -9 -9 -10 -9 -9 -9 -9 -9 -9 -9 -9 -9 -9 -9
-5 -6 -6 -6 -6 -7 -7 -7 -7 -7 -7 -7 -8 -8 -8 -8 -8 -8 -8 -8 -8 -8 -8 -8 -8 -8 -9 -9 -9 -9 -9 -10 -9 -9 -9 -9 -9 -9 -9 -9 -9 -9 -9
-5 -6 -6 -6 -6 -6 -7 -7 -7 -8 -8 -8 -8 -8 -8 -8 -8 -8 -8 -8 -8 -8 -8 -8 -8 -8 -9 -9 -9 -9 -9 -10 -10 -10 -10 -10 -9 -9 -9 -9 -9 -9 -9
-5 -6 -6 -6 -7 -7 -7 -7 -7 -8 -7 -7 -7 -7 -7 -7 -7 -8 -8 -8 -8 -8 -8 -8 -8 -8 -8 -8 -9 -9 -9 -10 -10 -10 -10 -9 -9 -9 -9 -9 -9 -9 -9
-5 -6 -6 -6 -6 -7 -7 -7 -7 -7 -7 -7 -7 -7 -7 -6 -7 -7 -7 -7 -7 -8 -8 -8 -8 -8 -8 -9 -9 -9 -10 -9 -10 -10 -10 -9 -9 -9 -9 -9 -9 -9 -9
-5 -6 -6 -6 -6 -6 -6 -6 -7 -7 -7 -7 -7 -7 -7 -6 -6 -7 -7 -7 -8 -8 -8 -8 -8 -8 -8 -9 -9 -9 -10 -10 -10 -10 -9 -9 -9 -9 -9 -9 -9 -9 -8
-5 -6 -6 -6 -6 -6 -6 -6 -6 -6 -7 -7 -6 -6 -7 -7 -7 -7 -7 -7 -8 -8 -8 -8 -8 -9 -9 -9 -9 -9 -10 -10 -9 -9 -9 -9 -9 -10 -9 -9 -9 -9 -8
-5 -5 -6 -6 -6 -6 -6 -6 -6 -6 -6 -6 -6 -6 -6 -7 -7 -7 -7 -7 -7 -8 -8 -8 -9 -9 -9 -8 -9 -9 -9 -9 -9 -9 -10 -10 -10 -9 -9 -9 -9 -9 -8
-5 -5 -5 -6 -6 -6 -6 -6 -6 -6 -7 -7 -6 -6 -6 -6 -6 -7 -7 -7 -7 -8 -8 -8 -8 -8 -9 -9 -9 -8 -9 -9 -9 -9 -9 -9 -9 -9 -9 -9 -8 -8 -8
-5 -5 -5 -5 -6 -6 -5 -6 -6 -6 -6 -6 -6 -6 -6 -6 -6 -7 -7 -7 -7 -7 -7 -7 -8 -8 -8 -8 -8 -9 -9 -9 -9 -9 -9 -9 -9 -9 -9 -9 -9 -8 -8
-5 -5 -5 -5 -6 -5 -5 -5 -6 -6 -6 -6 -6 -6 -6 -6 -6 -6 -7 -7 -7 -7 -7 -7 -7 -8 -8 -8 -8 -8 -8 -9 -8 -8 -8 -9 -9 -9 -9 -8 -8 -8 -8
-5 -5 -5 -5 -6 -5 -5 -5 -6 -6 -6 -6 -6 -6 -6 -7 -7 -7 -7 -6 -7 -7 -7 -7 -7 -7 -8 -7 -8 -8 -8 -8 -8 -8 -8 -8 -8 -8 -8 -8 -8 -8 -8
-5 -5 -5 -5 -6 -5 -5 -5 -6 -6 -6 -6 -6 -6 -6 -6 -6 -7 -7 -7 -7 -7 -7 -7 -7 -7 -7 -7 -8 -7 -8 -8 -8 -8 -8 -8 -8 -8 -8 -8 -8 -8 -8
-5 -6 -5 -5 -5 -5 -5 -5 -6 -6 -6 -6 -6 -6 -6 -6 -6 -6 -6 -7 -7 -6 -7 -7 -7 -7 -7 -7 -7 -8 -8 -7 -7 -8 -7 -8 -8 -7 -7 -7 -7 -7 -7
-6 -6 -5 -5 -5 -5 -5 -5 -6 -6 -6 -6 -6 -6 -6 -6 -6 -6 -6 -6 -7 -7 -7 -7 -7 -7 -8 -7 -7 -7 -7 -7 -8 -8 -8 -8 -8 -7 -7 -7 -7 -7 -8
-6 -6 -6 -5 -5 -5 -5 -6 -6 -6 -6 -6 -6 -6 -6 -7 -6 -6 -6 -6 -6 -6 -6 -7 -7 -7 -7 -8 -7 -7 -7 -8 -8 -8 -8 -7 -7 -7 -7 -7 -7 -8 -8
-6 -6 -6 -5 -5 -5 -5 -6 -6 -6 -6 -6 -6 -6 -6 -6 -6 -6 -6 -5 -6 -6 -6 -7 -7 -7 -7 -7 -7 -7 -7 -7 -7 -7 -7 -7 -7 -7 -7 -8 -8 -8 -8
-6 -6 -6 -5 -5 -5 -5 -6 -6 -6 -6 -6 -6 -6 -6 -6 -6 -6 -5 -5 -6 -6 -6 -6 -6 -7 -7 -7 -7 -7 -7 -7 -7 -7 -7 -7 -7 -7 -8 -8 -8 -8 -9
-6 -6 -6 -6 -5 -6 -6 -6 -6 -6 -6 -6 -6 -6 -6 -6 -6 -5 -5 -5 -6 -5 -6 -6 -6 -7 -7 -7 -7 -7 -6 -7 -6 -6 -7 -7 -7 -8 -8 -8 -9 -9 -9
-6 -6 -6 -6 -5 -5 -6 -6 -6 -6 -6 -6 -6 -6 -6 -5 -5 -5 -5 -5 -5 -6 -5 -5 -6 -6 -6 -7 -6 -7 -7 -6 -6 -6 -7 -7 -8 -8 -8 -8 -8 -9 -9
-6 -6 -6 -6 -5 -6 -6 -6 -6 -6 -6 -6 -6 -6 -6 -5 -5 -5 -5 -5 -5 -6 -5 -6 -6 -6 -6 -6 -6 -6 -6 -6 -6 -7 -7 -7 -8 -8 -8 -8 -8 -9 -9
-6 -6 -6 -6 -5 -5 -6 -6 -6 -6 -5 -6 -6 -5 -5 -5 -5 -5 -4 -4 -5 -5 -5 -6 -6 -6 -6 -6 -6 -6 -6 -6 -7 -7 -7 -8 -8 -8 -8 -8 -9 -8 -9
-7 -7 -6 -6 -6 -5 -6 -6 -6 -6 -6 -6 -5 -5 -5 -5 -5 -4 -4 -4 -4 -4 -5 -5 -5 -6 -6 -5 -5 -5 -6 -6 -7 -7 -7 -7 -8 -8 -8 -8 -8 -8 -9
-6 -6 -6 -6 -6 -5 -6 -6 -6 -6 -6 -6 -5 -5 -5 -5 -5 -4 -4 -4 -5 -5 -5 -5 -5 -5 -5 -6 -5 -6 -6 -6 -7 -7 -7 -7 -7 -7 -7 -7 -8 -8 -8
Height
5899 5898 5898 5899 5898 5899 5899 5900 5900 5902 5902 5902 5903 5903 5903 5902 5901 5900 5899 5899 5900 5902 5902 5902 5902 5903 5904 5906 5906 5905 5904 5904 5905 5905 5905 5905 5905 5905 5904 5904 5903 5903 5902
5900 5900 5900 5900 5900 5901 5901 5902 5902 5902 5903 5904 5904 5903 5903 5902 5902 5901 5901 5901 5901 5902 5902 5902 5904 5905 5906 5905 5906 5906 5904 5905 5906 5906 5906 5906 5906 5906 5906 5906 5905 5905 5904
5902 5902 5902 5902 5902 5903 5904 5904 5904 5903 5904 5905 5905 5905 5905 5904 5904 5904 5904 5902 5901 5902 5903 5905 5905 5904 5905 5905 5905 5904 5902 5905 5906 5907 5907 5907 5908 5908 5908 5908 5907 5907 5905
5904 5904 5904 5904 5905 5906 5906 5906 5905 5906 5907 5906 5906 5905 5906 5905 5905 5904 5904 5904 5904 5904 5905 5905 5904 5905 5906 5905 5904 5905 5904 5905 5907 5908 5908 5909 5910 5911 5910 5910 5909 5908 5907
5905 5905 5906 5907 5907 5908 5908 5908 5908 5909 5909 5908 5908 5908 5907 5906 5906 5905 5905 5905 5906 5906 5906 5906 5906 5905 5904 5904 5905 5904 5906 5907 5908 5909 5910 5911 5912 5913 5912 5912 5911 5910 5910
5907 5908 5908 5909 5910 5910 5910 5911 5911 5911 5911 5912 5911 5911 5909 5908 5906 5906 5906 5907 5907 5908 5908 5908 5907 5906 5905 5905 5906 5906 5907 5909 5910 5911 5912 5914 5915 5914 5913 5913 5912 5912 5912
5909 5910 5910 5911 5912 5912 5912 5914 5913 5913 5915 5915 5914 5913 5911 5909 5910 5909 5909 5909 5910 5910 5911 5910 5910 5910 5909 5909 5908 5909 5909 5911 5912 5913 5914 5915 5915 5914 5914 5914 5914 5914 5914
5910 5912 5913 5913 5914 5913 5915 5915 5915 5916 5917 5917 5917 5916 5914 5914 5913 5913 5912 5912 5912 5912 5913 5913 5913 5913 5912 5912 5912 5912 5912 5912 5913 5915 5916 5915 5915 5915 5915 5915 5915 5915 5914
5911 5913 5914 5915 5915 5916 5916 5917 5918 5919 5919 5919 5919 5919 5918 5918 5917 5917 5916 5915 5915 5915 5915 5915 5916 5917 5916 5915 5914 5914 5914 5915 5916 5917 5916 5916 5916 5916 5916 5916 5915 5915 5915
5913 5914 5915 5916 5917 5918 5918 5920 5920 5921 5922 5923 5923 5923 5922 5920 5920 5920 5920 5919 5918 5918 5917 5918 5918 5919 5919 5918 5918 5918 5917 5917 5917 5918 5918 5918 5917 5917 5917 5917 5916 5916 5916
5915 5916 5916 5917 5919 5920 5920 5922 5923 5923 5924 5925 5925 5925 5925 5925 5925 5924 5924 5923 5923 5922 5920 5921 5920 5920 5920 5921 5921 5921 5921 5920 5920 5920 5920 5920 5919 5919 5919 5918 5918 5918 5918
5915 5917 5917 5918 5920 5921 5923 5925 5925 5926 5926 5927 5928 5928 5928 5928 5929 5927 5927 5927 5926 5925 5924 5923 5924 5923 5922 5923 5924 5924 5923 5922 5923 5923 5922 5922 5922 5922 5922 5921 5921 5921 5922
5916 5917 5918 5920 5921 5923 5925 5926 5927 5929 5929 5930 5930 5931 5930 5930 5931 5930 5929 5928 5929 5928 5927 5926 5927 5927 5926 5926 5926 5926 5926 5927 5926 5925 5925 5926 5926 5925 5925 5925 5924 5924 5924
5918 5918 5918 5921 5922 5924 5926 5928 5929 5930 5931 5932 5932 5932 5933 5932 5932 5932 5931 5930 5929 5930 5929 5929 5930 5929 5929 5930 5930 5929 5929 5931 5929 5928 5929 5930 5929 5929 5929 5928 5928 5927 5927
5919 5918 5919 5921 5923 5926 5927 5930 5932 5932 5933 5934 5934 5934 5935 5934 5933 5933 5932 5932 5931 5931 5931 5932 5932 5932 5932 5932 5933 5932 5932 5933 5932 5932 5932 5932 5932 5932 5932 5932 5932 5932 5931
5918 5920 5921 5922 5924 5926 5929 5931 5933 5934 5935 5936 5937 5936 5935 5935 5934 5934 5934 5933 5933 5933 5933 5934 5933 5933 5934 5935 5935 5935 5935 5936 5934 5935 5934 5935 5936 5936 5936 5935 5935 5936 5936
5918 5920 5922 5924 5925 5928 5930 5933 5934 5935 5937 5938 5938 5937 5937 5936 5936 5935 5935 5936 5935 5936 5936 5937 5935 5936 5936 5938 5939 5938 5938 5937 5937 5938 5938 5938 5938 5939 5939 5940 5940 5940 5941
5920 5922 5924 5924 5927 5930 5930 5934 5935 5934 5937 5939 5939 5939 5939 5938 5937 5937 5938 5939 5938 5939 5940 5939 5939 5940 5940 5940 5940 5939 5940 5939 5940 5940 5942 5942 5943 5944 5944 5944 5944 5944 5944
5920 5922 5923 5925 5928 5931 5932 5936 5938 5937 5939 5939 5939 5940 5940 5940 5942 5943 5941 5941 5940 5942 5943 5942 5941 5942 5943 5942 5942 5942 5943 5942 5944 5944 5945 5946 5947 5948 5948 5948 5947 5947 5947
5918 5920 5921 5925 5928 5931 5933 5937 5939 5939 5940 5940 5940 5942 5941 5942 5943 5942 5943 5944 5942 5942 5945 5944 5944 5944 5944 5943 5945 5945 5946 5947 5947 5948 5948 5949 5950 5951 5951 5951 5951 5950 5950
5917 5920 5921 5924 5928 5930 5934 5937 5938 5940 5941 5942 5943 5943 5944 5945 5944 5944 5944 5944 5944 5947 5947 5945 5945 5946 5947 5948 5947 5948 5950 5951 5952 5951 5951 5952 5954 5953 5954 5954 5954 5954 5953
5916 5919 5920 5923 5927 5930 5933 5937 5938 5940 5942 5944 5945 5946 5946 5946 5946 5946 5946 5947 5946 5948 5949 5949 5948 5949 5949 5950 5951 5951 5952 5954 5955 5956 5956 5956 5956 5955 5956 5956 5956 5956 5957
5915 5917 5919 5922 5926 5930 5933 5936 5939 5941 5942 5944 5947 5949 5948 5948 5948 5949 5949 5949 5949 5950 5952 5951 5952 5953 5952 5952 5952 5955 5955 5956 5957 5959 5959 5960 5959 5958 5958 5958 5959 5960 5960
5913 5915 5918 5920 5924 5928 5933 5936 5938 5941 5942 5945 5947 5950 5951 5951 5951 5952 5952 5952 5952 5953 5953 5953 5953 5954 5955 5954 5954 5956 5957 5958 5959 5961 5962 5962 5961 5960 5958 5960 5961 5962 5963
5910 5914 5916 5919 5922 5926 5930 5935 5938 5941 5944 5945 5948 5950 5952 5953 5953 5955 5955 5955 5955 5955 5955 5955 5956 5956 5956 5957 5957 5958 5960 5960 5961 5964 5964 5964 5964 5962 5961 5961 5962 5963 5963
5908 5912 5914 5918 5920 5924 5927 5932 5937 5940 5943 5945 5948 5950 5952 5954 5955 5956 5956 5957 5957 5957 5957 5957 5958 5958 5958 5959 5959 5959 5962 5963 5964 5965 5965 5965 5966 5966 5965 5964 5965 5964 5965
Wind_Speed
10 13 14 13 13 12 11 10 11 12 14 13 13 13 12 11 12 11 10 9 8 9 8 9 8 8 6 5 6 6 7 9 12 13 15 15 14 13 12 12 12 10 10
11 12 12 13 13 12 10 10 10 12 12 12 11 11 11 10 10 8 7 7 7 7 7 8 7 7 6 7 9 9 9 11 14 16 15 15 13 12 13 12 10 9 9
10 11 11 11 13 12 12 11 12 13 11 11 10 9 8 7 7 6 6 6 5 6 6 6 6 7 10 9 11 12 12 18 15 16 14 13 12 12 13 11 11 11 12
10 10 10 11 12 12 13 13 14 13 11 10 8 6 7 7 6 6 6 6 5 6 7 8 7 8 11 12 12 13 19 21 16 15 14 13 12 11 12 13 14 16 16
10 9 11 13 13 13 13 15 15 13 10 8 8 8 7 7 7 7 7 7 8 10 10 11 10 10 10 11 12 12 14 18 16 15 13 12 11 11 12 13 16 16 16
10 9 11 13 14 12 13 14 13 12 10 10 11 10 11 10 10 10 12 12 14 15 15 14 13 13 12 13 14 13 13 17 15 15 12 11 10 10 12 13 14 14 15
10 9 11 14 13 13 14 14 14 14 15 15 15 16 15 14 16 17 17 18 18 17 16 15 13 13 14 14 14 15 19 17 15 14 11 11 9 11 12 11 10 11 12
11 10 10 14 13 14 15 16 16 17 18 17 18 17 18 19 20 21 20 19 18 18 17 16 16 14 14 14 13 13 16 16 15 11 10 9 9 11 10 9 9 9 9
9 10 10 12 14 15 16 16 17 17 17 18 19 18 19 19 19 19 19 19 18 18 16 18 18 16 14 13 13 14 13 15 14 12 11 10 11 10 9 8 7 7 8
9 9 10 12 15 16 17 17 16 16 18 18 19 19 19 19 19 20 19 18 18 19 18 16 19 17 15 14 14 14 14 13 13 11 10 8 11 10 10 10 9 9 10
7 9 10 12 15 17 18 17 14 16 19 20 19 18 16 15 16 17 16 17 18 18 17 16 15 18 16 17 17 16 17 16 14 12 14 15 16 15 14 14 16 19 21
7 9 8 12 15 16 17 17 14 14 15 16 16 14 12 13 13 13 13 12 13 13 14 14 14 16 19 19 18 18 17 16 15 17 17 15 17 17 19 22 22 25 24
6 8 7 12 14 15 15 13 12 13 13 11 12 9 9 9 10 9 10 10 12 11 9 12 11 14 16 16 18 20 20 19 20 19 19 18 20 19 21 22 23 22 20
5 7 6 11 14 15 15 11 10 11 12 11 8 6 8 7 9 9 10 10 9 12 13 12 12 14 14 17 16 18 20 18 20 21 20 19 20 19 20 19 19 19 20
6 6 5 10 14 15 14 11 10 9 10 9 6 3 4 5 6 7 10 7 8 12 12 12 15 15 14 16 16 16 19 18 20 20 20 20 21 19 19 20 19 19 21
5 5 5 9 13 15 14 13 10 7 7 8 5 2 2 4 6 8 8 10 10 12 13 12 15 16 13 18 14 16 16 17 19 20 20 20 21 20 20 22 24 25 27
4 3 5 11 14 13 13 14 10 7 4 5 2 4 4 5 6 9 10 11 13 12 11 11 15 14 14 15 15 15 15 16 17 18 17 19 21 21 22 23 24 26 26
8 7 7 11 13 12 13 12 10 6 6 3 2 4 5 6 6 7 9 10 13 11 10 10 12 14 14 12 15 16 16 16 15 19 19 21 21 22 24 23 23 24 23
10 9 8 11 14 13 12 13 8 8 6 5 5 4 6 7 7 7 9 9 9 10 9 11 12 13 13 15 16 17 16 19 18 20 21 21 23 22 22 22 23 23 24
9 8 8 12 14 11 9 12 7 8 8 9 4 3 6 6 8 12 11 10 12 11 9 12 15 14 13 16 16 17 15 17 19 19 21 21 21 21 22 22 24 24 26
10 9 11 11 14 12 12 11 8 9 10 7 3 7 9 4 10 13 12 14 15 14 15 13 15 15 13 13 16 16 15 15 16 19 21 20 19 21 20 21 24 26 28
13 11 13 13 16 12 11 10 9 9 8 7 7 9 9 10 11 14 13 13 16 13 14 15 16 15 13 14 14 16 12 14 16 17 17 17 18 21 20 21 22 25 26
15 13 14 15 19 15 10 10 8 8 5 7 8 10 8 11 11 13 13 13 11 13 13 14 14 15 16 14 14 12 15 15 17 15 14 15 15 17 19 20 20 21 21
17 16 16 16 20 19 13 13 11 10 7 9 8 9 11 9 9 10 11 12 11 12 12 13 12 13 15 15 14 13 15 16 15 14 11 13 13 16 18 17 19 17 17
19 18 18 19 20 22 17 14 13 11 8 9 9 8 8 9 8 9 9 9 9 9 11 10 10 11 12 15 15 15 15 16 15 12 10 12 12 17 19 17 18 18 18
19 23 19 18 20 24 21 17 15 13 12 11 10 10 10 10 9 8 8 7 7 8 8 8 7 8 9 11 15 18 15 14 14 12 12 13 13 16 18 20 20 20 17
Wind_Direction
88 106 108 114 120 123 128 126 132 133 129 121 117 109 97 91 88 87 86 86 84 91 95 100 90 79 78 105 124 135 131 117 120 112 98 90 84 83 75 74 76 69 69
96 99 101 112 119 120 115 116 124 125 120 118 102 86 81 77 75 76 72 69 68 72 80 79 79 78 84 93 104 120 149 140 122 109 96 87 82 78 76 73 69 68 72
98 102 102 110 114 114 109 105 114 120 116 102 94 93 89 80 72 69 65 72 70 63 67 76 75 72 76 76 88 81 112 144 117 105 95 83 75 77 79 76 68 68 76
99 101 101 102 105 107 103 104 105 107 110 111 103 80 61 61 66 82 82 91 98 91 83 82 86 88 79 85 91 92 94 112 109 107 95 82 80 82 80 75 71 74 76
101 100 99 102 105 107 113 111 109 108 112 105 82 72 67 70 71 88 102 99 92 93 91 90 94 94 91 98 90 99 103 116 114 110 100 85 83 82 83 78 73 76 78
104 97 97 100 109 116 115 109 109 106 102 93 89 84 80 91 107 108 103 105 105 101 95 86 81 82 85 91 97 89 95 109 110 104 96 94 91 80 79 80 79 83 80
106 98 97 99 107 114 111 110 108 107 102 98 91 90 93 96 93 99 102 105 102 97 89 85 79 81 82 85 97 98 103 112 104 98 95 91 85 81 82 84 84 80 73
110 105 100 104 111 111 110 113 110 106 104 99 99 94 87 93 98 101 105 104 103 98 93 88 85 83 82 84 91 93 96 96 104 96 90 87 85 84 87 87 84 81 75
109 112 106 113 119 115 117 116 111 109 109 107 102 102 100 97 97 99 96 98 97 98 95 93 87 88 83 82 89 97 100 101 99 92 89 90 82 86 90 85 86 78 71
116 117 116 122 119 119 123 119 111 107 105 110 105 98 94 97 97 94 98 98 99 97 92 93 100 93 83 80 83 95 101 98 94 94 92 99 94 92 84 81 78 85 91
123 121 121 128 125 125 128 119 113 110 114 108 107 102 94 86 78 82 83 86 85 88 91 87 90 98 94 84 84 83 94 97 94 95 92 94 93 90 89 88 93 95 96
134 125 123 136 131 130 131 121 120 120 118 111 111 105 94 83 76 75 73 73 75 87 83 85 81 93 92 89 90 94 88 90 98 95 92 94 93 93 92 94 92 95 96
137 125 130 141 136 137 131 125 124 123 125 118 117 113 95 80 68 65 77 83 83 79 78 82 88 95 98 103 101 100 99 96 97 99 97 96 94 93 95 96 96 97 93
128 115 120 145 143 142 133 129 121 124 131 137 123 102 68 71 64 58 74 73 76 93 77 98 97 95 94 97 100 101 93 100 100 100 94 87 85 87 93 90 93 94 93
124 122 114 153 149 146 140 124 124 124 131 130 126 124 47 55 38 55 57 84 73 86 91 93 94 96 92 94 101 99 104 102 96 95 94 90 88 88 91 90 89 91 90
111 141 126 156 159 153 137 131 138 119 121 117 114 45 40 43 34 41 60 74 85 89 82 84 88 95 97 94 102 102 104 104 99 97 96 94 91 89 91 91 89 89 91
127 150 148 160 166 150 143 138 130 94 114 107 93 45 51 46 40 66 65 84 82 82 81 81 81 87 102 91 101 109 104 100 98 98 96 99 101 100 96 94 94 94 92
156 184 173 168 163 155 149 148 132 127 102 122 88 95 74 58 59 62 72 82 87 84 79 85 84 86 103 95 84 88 94 94 99 101 103 105 102 101 99 98 99 98 93
151 173 166 163 162 159 153 147 146 138 143 120 105 70 75 97 110 126 86 87 91 92 99 98 90 77 81 83 78 85 94 104 107 108 108 106 106 103 98 101 101 98 94
151 168 170 163 162 160 161 148 151 142 137 123 134 106 101 117 112 94 88 91 91 84 93 97 97 85 74 75 88 89 95 105 115 117 115 111 106 101 101 103 102 99 95
157 175 170 167 164 163 162 166 174 153 134 139 134 129 126 117 114 105 96 83 89 98 106 101 99 96 90 94 97 101 108 115 122 118 114 111 109 104 101 103 102 102 100
169 185 172 172 172 170 170 164 170 162 145 142 133 146 132 136 116 107 97 86 88 88 92 104 103 105 104 101 110 114 117 123 122 120 119 115 111 104 103 94 94 102 101
179 181 184 177 176 177 174 157 166 159 142 131 130 140 134 126 118 110 100 94 86 85 87 85 94 101 99 102 111 121 127 130 128 125 124 117 111 102 98 93 92 99 100
188 186 190 183 183 177 181 169 176 186 160 138 138 148 143 134 126 115 101 93 89 81 73 80 86 91 104 105 109 127 131 130 129 128 124 117 107 101 95 99 107 109 103
191 189 193 189 187 179 185 184 177 193 173 152 149 153 160 144 141 126 104 90 82 71 69 72 77 87 89 105 113 124 131 129 128 133 120 111 110 104 105 106 107 106 104
196 192 195 191 190 186 183 191 184 183 181 169 164 166 179 168 173 146 123 107 83 66 66 65 66 67 78 96 114 125 129 129 120 118 104 92 91 97 99 106 107 106 106